User: anonymous   Login
Location: Unspecified
(0.0000°N, 0.0000°E)
Time: 17:06:41
(UTC+00:00)
Language:

USA 229 - Orbit

View from above orbital plane
View from above orbital plane
View from above satellite
View from above satellite

Ground track
Ground track

The orbit data is extracted from the following two-line orbital elements,

1 37386U 11014A   20054.83577333 0.00000000  00000-0  00000-0 0    07
2 37386  63.4299  38.0925 0154000   0.3739 359.6261 13.40797949    06
Epoch (UTC): 23 February 2020 20:03:30
Eccentricity: 0.0154000
inclination: 63.4299°
perigee height: 991 km
apogee height: 1221 km
right ascension of ascending node: 38.0925°
argument of perigee: 0.3739°
revolutions per day: 13.40797949
mean anomaly at epoch: 359.6261°
orbit number at epoch: 0

The dashed part of the orbit path shows where the satellite is in the earth's shadow,  

DLR